Location: Gouy
(50.0008°N, 3.2556°E)
Time: 21:30:53
(UTC+00:00)

Cosmos 1356 Rocket - Pass Details

Date: 23 May 2024
Orbit: 530 x 579 km, 81.2° (Epoch: 14 June)

Event Time Altitude Azimuth Distance (km) Brightness Sun altitude
Exits shadow 01:22:42 27° 235° (SW) 1,085 4.3 -16.0°
Maximum altitude 01:24:25 42° 288° (WNW) 803 4.1 -15.9°
Drops below altitude 10° 01:28:22 10° 0° (N) 1,874 7.1 -15.7°
Sets 01:30:40 0° 8° (N) 2,784 8.4 -15.5°
